When you browse on this site, cookies collect data to enhance your experience and personalize the content and advertising you see.
Visit our Privacy Policy to learn more. By continuing to use the site, you agree to this use of cookies and data.
  • Em Portugal
  • Lista de países
  • Para 7 dias
  • Temperatura da água
  • Mapas de satélite
  • Mapa do tempo
  • Widgets de tempo
  • user-avatar
    Iniciar Sessão

    Previsão horária em Perhlyay

    Hoje, 26 Junho, Quarta-feira

    Tempo Temperatura Precipitação Vento Pressão Humidade
    00:00 +13°C° 0 mm 2 m/s 748 mmHg 86%
    01:00 +12°C° 0 mm 2 m/s 749 mmHg 87%
    02:00 +12°C° 0 mm 2 m/s 749 mmHg 89%
    03:00 +10°C° 0 mm 3 m/s 749 mmHg 91%
    04:00 +11°C° 0 mm 3 m/s 749 mmHg 88%
    05:00 +12°C° 0 mm 3 m/s 749 mmHg 86%
    06:00 +12°C° 0 mm 3 m/s 748 mmHg 84%
    07:00 +14°C° 0 mm 3 m/s 748 mmHg 77%
    08:00 +15°C° 0 mm 4 m/s 749 mmHg 69%
    09:00 +17°C° 0 mm 4 m/s 749 mmHg 62%
    10:00 +18°C° 0 mm 4 m/s 748 mmHg 59%
    11:00 +18°C° 0 mm 4 m/s 748 mmHg 56%
    12:00 +19°C° 0 mm 4 m/s 748 mmHg 53%
    13:00 +19°C° 0 mm 4 m/s 748 mmHg 53%
    14:00 +19°C° 0 mm 3 m/s 748 mmHg 52%
    15:00 +20°C° 0 mm 3 m/s 747 mmHg 51%
    16:00 +19°C° 0 mm 2 m/s 747 mmHg 55%
    17:00 +19°C° 0 mm 2 m/s 746 mmHg 58%
    18:00 +20°C° 0 mm 1 m/s 746 mmHg 61%
    19:00 +18°C° 0 mm 2 m/s 745 mmHg 64%
    20:00 +16°C° 0 mm 2 m/s 745 mmHg 67%
    21:00 +15°C° 0 mm 2 m/s 744 mmHg 70%
    22:00 +14°C° 0.7 mm 2 m/s 743 mmHg 77%
    23:00 +14°C° 0.7 mm 1 m/s 743 mmHg 85%

    Amanhã, 27 Junho, Quinta-feira

    Tempo Temperatura Precipitação Vento Pressão Humidade
    00:00 +13°C° 0.7 mm 1 m/s 742 mmHg 92%
    01:00 +13°C° 2.9 mm 1 m/s 741 mmHg 94%
    02:00 +13°C° 2.9 mm 2 m/s 741 mmHg 96%
    03:00 +13°C° 2.9 mm 2 m/s 741 mmHg 97%
    04:00 +13°C° 0.6 mm 2 m/s 740 mmHg 97%
    05:00 +12°C° 0.6 mm 3 m/s 740 mmHg 96%
    06:00 +12°C° 0.6 mm 3 m/s 739 mmHg 96%
    07:00 +13°C° 0 mm 3 m/s 739 mmHg 90%
    08:00 +16°C° 0 mm 3 m/s 739 mmHg 85%
    09:00 +17°C° 0 mm 4 m/s 739 mmHg 79%
    10:00 +17°C° 0 mm 3 m/s 739 mmHg 76%
    11:00 +18°C° 0 mm 3 m/s 738 mmHg 73%
    12:00 +18°C° 0 mm 3 m/s 738 mmHg 70%
    13:00 +19°C° 0 mm 3 m/s 738 mmHg 66%
    14:00 +19°C° 0 mm 2 m/s 738 mmHg 62%
    15:00 +21°C° 0 mm 1 m/s 738 mmHg 58%
    16:00 +20°C° 0 mm 2 m/s 737 mmHg 62%
    17:00 +19°C° 0 mm 2 m/s 737 mmHg 66%
    18:00 +19°C° 0 mm 2 m/s 736 mmHg 70%
    19:00 +18°C° 0 mm 3 m/s 736 mmHg 73%
    20:00 +17°C° 0 mm 4 m/s 736 mmHg 77%
    21:00 +14°C° 0 mm 5 m/s 735 mmHg 80%
    22:00 +14°C° 0 mm 6 m/s 735 mmHg 80%
    23:00 +14°C° 0 mm 6 m/s 734 mmHg 79%

    Depois de amanhã, 28 Junho, Sexta-feira

    Tempo Temperatura Precipitação Vento Pressão Humidade
    00:00 +12°C° 0 mm 7 m/s 733 mmHg 79%
    01:00 +11°C° 1.8 mm 8 m/s 732 mmHg 84%
    02:00 +11°C° 1.8 mm 8 m/s 732 mmHg 89%
    03:00 +10°C° 1.8 mm 9 m/s 731 mmHg 95%
    04:00 +10°C° 3.8 mm 9 m/s 730 mmHg 95%
    05:00 +9°C° 3.8 mm 10 m/s 729 mmHg 96%
    06:00 +9°C° 3.8 mm 10 m/s 728 mmHg 96%
    07:00 +11°C° 1.9 mm 9 m/s 728 mmHg 96%
    08:00 +12°C° 1.9 mm 9 m/s 727 mmHg 96%
    09:00 +12°C° 1.9 mm 9 m/s 727 mmHg 96%
    10:00 +13°C° 0.3 mm 9 m/s 727 mmHg 95%
    11:00 +16°C° 0.3 mm 8 m/s 727 mmHg 94%
    12:00 +17°C° 0.3 mm 7 m/s 727 mmHg 93%
    13:00 +17°C° 0.2 mm 7 m/s 726 mmHg 93%
    14:00 +17°C° 0.2 mm 7 m/s 726 mmHg 92%
    15:00 +17°C° 0.2 mm 7 m/s 726 mmHg 92%
    16:00 +18°C° 0.2 mm 7 m/s 726 mmHg 91%
    17:00 +19°C° 0.2 mm 6 m/s 726 mmHg 90%
    18:00 +19°C° 0.2 mm 6 m/s 726 mmHg 90%
    19:00 +17°C° 0.1 mm 5 m/s 726 mmHg 91%
    20:00 +17°C° 0.1 mm 4 m/s 727 mmHg 92%
    21:00 +16°C° 0.1 mm 3 m/s 727 mmHg 93%
    22:00 +14°C° 0 mm 3 m/s 727 mmHg 94%
    23:00 +13°C° 0 mm 3 m/s 727 mmHg 94%

    29 Junho, Sábado

    Tempo Temperatura Precipitação Vento Pressão Humidade
    00:00 +13°C° 0 mm 3 m/s 727 mmHg 94%
    01:00 +12°C° 0 mm 4 m/s 727 mmHg 95%
    02:00 +12°C° 0 mm 4 m/s 727 mmHg 95%
    03:00 +11°C° 0 mm 4 m/s 727 mmHg 96%
    04:00 +12°C° 0 mm 5 m/s 727 mmHg 94%
    05:00 +11°C° 0 mm 6 m/s 727 mmHg 93%
    06:00 +11°C° 0 mm 7 m/s 727 mmHg 91%
    07:00 +12°C° 0 mm 7 m/s 728 mmHg 88%
    08:00 +12°C° 0 mm 7 m/s 728 mmHg 85%
    09:00 +12°C° 0 mm 8 m/s 728 mmHg 82%
    10:00 +12°C° 0 mm 7 m/s 729 mmHg 81%
    11:00 +14°C° 0 mm 7 m/s 730 mmHg 79%
    12:00 +14°C° 0 mm 7 m/s 730 mmHg 77%
    13:00 +15°C° 0 mm 7 m/s 730 mmHg 76%
    14:00 +15°C° 0 mm 7 m/s 731 mmHg 75%
    15:00 +15°C° 0 mm 6 m/s 731 mmHg 74%
    16:00 +15°C° 0.1 mm 6 m/s 732 mmHg 76%
    17:00 +16°C° 0.1 mm 5 m/s 732 mmHg 78%
    18:00 +17°C° 0.1 mm 4 m/s 732 mmHg 80%
    19:00 +14°C° 0 mm 4 m/s 732 mmHg 84%
    20:00 +13°C° 0 mm 3 m/s 733 mmHg 88%
    21:00 +13°C° 0 mm 2 m/s 733 mmHg 92%
    22:00 +12°C° 0 mm 2 m/s 733 mmHg 93%
    23:00 +10°C° 0 mm 2 m/s 734 mmHg 94%

    30 Junho, Domingo

    Tempo Temperatura Precipitação Vento Pressão Humidade
    00:00 +10°C° 0 mm 2 m/s 734 mmHg 95%
    01:00 +9°C° 0 mm 2 m/s 734 mmHg 95%
    02:00 +9°C° 0 mm 2 m/s 734 mmHg 96%
    03:00 +8°C° 0 mm 2 m/s 735 mmHg 96%
    04:00 +9°C° 0 mm 2 m/s 735 mmHg 95%
    05:00 +10°C° 0 mm 2 m/s 735 mmHg 94%
    06:00 +10°C° 0 mm 2 m/s 736 mmHg 93%
    07:00 +13°C° 0 mm 2 m/s 736 mmHg 86%
    08:00 +13°C° 0 mm 3 m/s 736 mmHg 79%
    09:00 +14°C° 0 mm 3 m/s 736 mmHg 73%
    10:00 +16°C° 0 mm 3 m/s 736 mmHg 70%
    11:00 +17°C° 0 mm 3 m/s 737 mmHg 68%
    12:00 +18°C° 0 mm 3 m/s 737 mmHg 65%
    13:00 +18°C° 0.1 mm 3 m/s 737 mmHg 65%
    14:00 +18°C° 0.1 mm 3 m/s 737 mmHg 66%
    15:00 +18°C° 0.1 mm 3 m/s 737 mmHg 66%
    16:00 +17°C° 0 mm 3 m/s 738 mmHg 68%
    17:00 +17°C° 0 mm 3 m/s 738 mmHg 70%
    18:00 +16°C° 0 mm 3 m/s 739 mmHg 72%
    19:00 +15°C° 0 mm 2 m/s 739 mmHg 77%
    20:00 +13°C° 0 mm 2 m/s 739 mmHg 82%
    21:00 +11°C° 0 mm 1 m/s 739 mmHg 87%
    22:00 +11°C° 0 mm 1 m/s 740 mmHg 88%
    23:00 +11°C° 0 mm 1 m/s 740 mmHg 88%

    1 Julho, Segunda-feira

    Tempo Temperatura Precipitação Vento Pressão Humidade
    00:00 +10°C° 0 mm 1 m/s 740 mmHg 89%
    01:00 +10°C° 0 mm 1 m/s 740 mmHg 90%
    02:00 +10°C° 0 mm 1 m/s 741 mmHg 91%
    03:00 +10°C° 0 mm 1 m/s 741 mmHg 91%
    04:00 +10°C° 0 mm 1 m/s 741 mmHg 90%
    05:00 +10°C° 0 mm 2 m/s 741 mmHg 88%
    06:00 +12°C° 0 mm 2 m/s 741 mmHg 87%
    07:00 +14°C° 0 mm 2 m/s 741 mmHg 81%
    08:00 +15°C° 0 mm 2 m/s 741 mmHg 76%
    09:00 +17°C° 0 mm 3 m/s 741 mmHg 71%
    10:00 +18°C° 0 mm 3 m/s 741 mmHg 69%
    11:00 +19°C° 0 mm 3 m/s 741 mmHg 68%
    12:00 +20°C° 0 mm 3 m/s 740 mmHg 66%
    13:00 +19°C° 0.1 mm 3 m/s 740 mmHg 68%
    14:00 +19°C° 0.1 mm 4 m/s 740 mmHg 71%
    15:00 +19°C° 0.1 mm 4 m/s 739 mmHg 73%
    16:00 +19°C° 0.2 mm 4 m/s 739 mmHg 77%
    17:00 +18°C° 0.2 mm 4 m/s 739 mmHg 81%
    18:00 +17°C° 0.2 mm 3 m/s 739 mmHg 85%
    19:00 +15°C° 1 mm 4 m/s 738 mmHg 89%
    20:00 +15°C° 1 mm 4 m/s 738 mmHg 92%
    21:00 +14°C° 1 mm 4 m/s 738 mmHg 95%
    22:00 +14°C° 0.6 mm 4 m/s 738 mmHg 96%
    23:00 +14°C° 0.6 mm 3 m/s 738 mmHg 97%
    Mostrar mais